Terminal Aerodrome Forecast
Issued by NWS

Home | Current Version | Previous Version | Text Only | Print | Product List | Glossary On
Versions: 1 2 3 4 5 6 7 8 9 10 11 12 13
000
FTUS44 KEPZ 012325
TAFDMN
TAF
KDMN 012325Z 0200/0224 29008KT P6SM VCTS SCT100CB SCT250
     FM020500 25007KT P6SM SCT100 SCT250
     FM022000 24007KT P6SM VCTS SCT090CB BKN250=

USA.gov is the U.S. government's official web portal to all federal, state and local government web resources and services.